This is the latest recevied weather packets stored in our database for station/object SQ3MKP-13. If no packets are shown the sender has not sent any weather packets the latest 10 day(s).
| Time | Temp. | Humidity | Pressure | Rain* | Wind** | Luminosity | Snow |
|---|---|---|---|---|---|---|---|
| 1777547399 | 13.33° C | 40% | 1020.3 hPa | - | - | 765 W/m² | - |
| 1777547099 | 13.33° C | 39% | 1020.4 hPa | - | - | 635 W/m² | - |
| 1777546797 | 12.78° C | 39% | 1020.4 hPa | - | - | 765 W/m² | - |
| 1777546496 | 12.78° C | 39% | 1020.6 hPa | - | - | 692 W/m² | - |
| 1777546196 | 12.78° C | 39% | 1020.6 hPa | - | - | 575 W/m² | - |
| 1777545895 | 12.78° C | 39% | 1020.6 hPa | - | - | 571 W/m² | - |
| 1777545594 | 12.78° C | 38% | 1020.7 hPa | - | - | 575 W/m² | - |
| 1777545293 | 12.22° C | 38% | 1020.7 hPa | - | - | 578 W/m² | - |
| 1777544992 | 12.78° C | 39% | 1020.8 hPa | - | - | 503 W/m² | - |
| 1777544691 | 12.22° C | 38% | 1020.8 hPa | - | - | 511 W/m² | - |
| 1777544391 | 12.78° C | 39% | 1020.7 hPa | - | - | 692 W/m² | - |
| 1777544090 | 12.78° C | 39% | 1020.9 hPa | - | - | 663 W/m² | - |
| 1777543789 | 12.78° C | 39% | 1020.8 hPa | - | - | 499 W/m² | - |
| 1777543488 | 12.22° C | 39% | 1020.8 hPa | - | - | 628 W/m² | - |
| 1777543187 | 11.67° C | 41% | 1020.9 hPa | - | - | 536 W/m² | - |
| 1777542886 | 11.67° C | 39% | 1020.9 hPa | - | - | 676 W/m² | - |
| 1777542585 | 11.67° C | 40% | 1020.9 hPa | - | - | 870 W/m² | - |
| 1777542284 | 11.67° C | 40% | 1020.9 hPa | - | - | 523 W/m² | - |
| 1777541983 | 11.67° C | 40% | 1021 hPa | - | - | 489 W/m² | - |
| 1777541682 | 11.11° C | 40% | 1020.9 hPa | - | - | 673 W/m² | - |
| 1777541382 | 11.11° C | 41% | 1021 hPa | - | - | 423 W/m² | - |
| 1777541081 | 10.56° C | 42% | 1021.1 hPa | - | - | 403 W/m² | - |
| 1777540780 | 10.56° C | 41% | 1021.1 hPa | - | - | 412 W/m² | - |
| 1777540478 | 10.56° C | 41% | 1021.2 hPa | - | - | 339 W/m² | - |
| 1777540178 | 10.56° C | 41% | 1021.2 hPa | - | - | 285 W/m² | - |
* Rain since midnight (hover to see other rain measurements)
** Current wind speed in m/s (hover to see current wind gust speed)